Wind_Speed
34 34 30 28 26 25 25 23 22 17 18 20 17 11 13 14 14 14 13 12 12 10 11 11 12 13 13 13 10 13 14 14 16 18 18 18 15 17 18 18 19 20 22
35 33 32 30 29 30 28 27 22 21 19 21 18 16 21 18 16 16 15 13 13 12 11 12 13 14 14 13 15 15 16 16 19 20 23 23 21 19 19 20 22 24 24
29 31 31 31 31 31 33 26 27 24 23 24 21 22 20 18 20 21 17 15 14 16 14 14 14 14 15 15 12 15 16 14 17 18 22 24 24 23 22 19 20 24 24
30 30 29 30 32 35 32 31 31 28 30 32 25 22 26 23 23 21 18 17 17 17 16 16 15 15 16 15 14 14 16 17 19 21 20 20 22 25 21 18 22 24 26
27 27 28 28 28 29 32 33 37 35 36 29 20 19 20 22 22 21 19 18 18 17 17 16 16 16 17 17 15 17 16 19 21 22 24 22 23 19 19 24 26 25 28
25 27 25 26 26 31 33 34 33 35 39 25 18 17 22 22 23 24 21 19 18 18 16 17 16 16 18 18 19 20 19 18 19 20 22 21 20 22 23 22 24 26 22
26 24 24 26 26 28 30 31 31 33 28 21 17 18 21 22 23 25 24 22 19 17 13 13 17 19 18 15 15 18 18 17 18 16 19 21 21 22 23 21 23 26 29
24 25 24 24 25 25 28 31 33 33 32 26 21 18 20 22 25 27 27 21 21 17 15 13 17 24 24 19 13 16 17 16 16 17 18 19 20 21 22 24 25 27 28
22 22 23 22 21 22 25 27 28 28 28 25 23 21 20 24 24 26 27 23 20 24 22 20 19 21 18 19 14 15 16 17 17 17 16 20 24 23 21 19 20 20 22
22 21 19 18 17 18 19 21 23 25 25 25 24 20 19 21 23 25 22 20 20 23 22 21 19 20 21 22 15 14 15 16 15 17 19 21 20 20 20 20 19 21 24
18 16 16 17 19 19 19 19 19 20 19 19 20 18 18 21 22 20 22 19 17 17 18 18 17 19 18 21 17 13 13 12 14 18 21 20 18 17 17 15 17 23 26
18 17 15 12 10 13 13 15 17 17 17 18 18 17 17 17 20 20 19 16 17 13 11 10 8 13 15 15 12 13 14 14 15 18 18 18 17 18 19 20 22 23 25
17 15 14 14 12 8 11 12 14 16 15 15 12 10 12 12 12 15 11 13 14 12 8 10 11 11 13 12 12 12 11 12 14 15 16 16 16 19 22 23 22 22 24
14 12 13 13 14 9 8 11 10 10 12 12 9 9 9 10 8 6 9 12 13 12 9 8 9 11 11 10 7 10 10 11 11 13 14 16 17 19 22 22 23 23 22
15 15 14 15 15 13 10 6 3 4 5 9 8 8 11 10 10 10 11 10 9 9 10 9 9 10 11 11 10 10 9 9 10 11 13 15 17 19 20 20 21 20 19
16 14 14 14 13 12 12 8 7 5 9 6 6 6 7 6 11 13 12 9 8 7 7 11 12 11 11 10 9 9 9 8 9 11 13 14 16 18 18 20 18 19 20
13 14 13 11 11 11 10 10 10 7 6 6 7 9 9 12 11 9 6 4 5 6 9 12 10 10 9 8 8 9 9 9 9 11 12 13 14 15 17 18 18 18 21
13 11 9 8 10 10 10 9 7 8 9 9 9 12 11 10 9 7 5 2 4 6 9 9 8 7 7 7 8 8 8 9 9 10 11 11 12 13 15 17 17 18 21
11 10 10 11 12 11 12 11 11 11 11 13 13 11 11 10 8 5 3 5 6 7 6 7 7 7 6 6 7 8 8 8 8 9 9 9 11 13 14 16 17 15 17
7 11 10 11 11 11 11 12 11 12 13 13 14 14 14 11 8 7 4 2 4 5 4 6 4 4 5 6 8 8 7 6 6 6 6 8 10 12 14 16 17 17 17
12 12 9 10 11 10 10 11 11 11 12 12 11 11 13 10 7 6 5 3 3 3 3 5 4 5 6 6 7 6 4 4 4 5 7 8 10 12 13 14 16 16 15
9 11 11 9 8 8 9 9 11 11 12 11 11 11 15 11 6 6 6 5 3 3 4 5 6 5 5 6 5 4 2 2 3 5 7 8 9 11 12 13 14 15 15
8 7 6 5 6 5 9 10 10 11 12 12 10 13 14 13 10 8 8 6 5 4 4 5 5 6 5 5 4 3 2 2 3 5 7 8 9 10 11 12 13 15 15
4 5 6 6 8 9 10 9 10 9 11 13 13 10 13 14 12 9 9 9 8 6 6 6 6 6 5 5 5 4 2 2 3 5 6 7 9 10 10 10 11 12 13
3 4 6 7 8 10 8 10 12 13 14 14 13 16 13 9 9 9 9 10 10 8 7 7 7 6 7 7 6 5 7 5 3 4 6 7 7 8 8 9 10 10 12
1 3 5 5 6 7 8 9 9 15 15 15 18 15 11 10 10 9 9 10 11 10 8 8 8 7 7 7 7 8 7 5 4 3 3 6 6 7 8 8 8 9 9
Wind_Direction
205 205 205 206 204 202 203 203 193 197 195 190 184 183 208 217 216 225 238 242 238 244 253 259 258 263 266 275 270 272 273 281 285 292 298 298 296 283 290 289 290 289 286
206 202 204 201 199 197 199 203 190 183 193 198 197 195 208 217 225 225 233 241 242 245 252 253 259 261 261 263 270 268 276 282 281 290 295 293 291 291 285 288 293 292 288
206 206 205 201 198 200 202 191 191 188 187 191 196 213 222 211 216 224 226 232 238 242 240 246 256 261 263 268 276 280 277 269 274 278 286 292 294 290 283 282 285 289 287
205 207 204 201 201 202 197 191 193 190 190 201 216 233 220 211 213 223 221 225 231 241 245 242 250 257 262 269 270 274 275 275 279 284 282 283 288 288 275 273 283 295 296
205 205 206 205 207 209 201 192 194 194 196 207 226 223 212 216 216 223 225 225 238 242 248 251 251 254 253 259 268 278 287 285 288 293 297 293 279 302 306 301 297 298 294
199 204 201 203 209 208 206 199 194 196 199 207 202 211 221 220 228 222 219 227 233 243 252 262 263 267 268 266 269 266 266 270 276 280 287 292 293 291 293 298 301 295 295
197 196 199 203 208 211 209 206 199 203 205 217 211 220 225 231 233 231 230 227 234 248 261 273 284 280 278 265 265 274 280 281 275 273 277 281 290 290 297 298 288 290 285
189 193 196 199 205 207 208 206 206 209 213 217 218 228 241 240 235 236 235 226 233 236 229 248 292 290 286 264 257 268 273 276 271 266 275 282 282 285 287 288 288 285 284
188 192 192 197 203 203 206 210 213 210 214 218 224 230 240 242 236 234 233 227 224 233 245 253 263 285 285 277 265 272 280 283 286 277 282 287 290 294 292 288 286 284 286
184 189 188 190 200 207 213 214 206 213 216 220 219 227 232 238 236 239 228 221 224 230 248 253 263 270 270 263 264 268 274 281 287 288 288 289 289 285 284 268 266 268 282
170 167 171 184 194 195 198 213 206 212 219 221 228 234 232 235 232 235 228 224 232 241 251 266 273 263 249 248 256 257 268 275 288 287 286 291 292 290 288 291 287 290 294
156 157 166 172 184 199 190 207 206 202 217 233 234 238 244 238 229 230 210 223 242 235 252 264 257 226 240 243 254 253 263 280 281 282 291 292 299 300 300 300 294 290 290
147 149 153 156 164 181 189 198 202 204 215 227 235 231 229 216 212 220 212 226 238 232 231 236 218 235 246 251 249 253 265 266 276 288 290 295 301 303 300 295 295 297 295
129 136 143 144 126 172 190 206 212 208 220 228 227 216 196 179 206 192 210 217 211 195 216 228 225 227 231 242 238 253 251 271 285 287 290 298 302 300 301 305 308 310 312
134 135 119 120 129 134 132 141 164 175 204 230 183 192 190 197 202 181 183 188 191 205 195 223 234 234 239 240 246 258 270 273 279 289 296 302 304 305 308 313 313 316 319
120 132 137 144 157 166 164 145 177 191 193 194 174 180 185 187 179 193 187 188 196 217 234 253 252 252 261 269 268 272 275 269 285 297 298 304 306 310 318 317 322 323 324
132 136 143 153 156 157 163 167 153 108 134 151 155 172 151 151 149 153 166 199 221 222 240 255 259 266 261 262 271 279 284 293 297 289 301 304 309 316 322 328 331 330 328
125 136 147 149 161 164 168 175 174 167 153 127 126 129 133 132 136 142 141 175 216 231 264 277 271 258 259 263 273 280 289 291 291 296 300 307 316 326 329 336 335 340 336
149 158 156 158 160 164 171 172 179 171 166 155 145 141 153 149 148 147 143 264 289 289 277 271 267 264 261 267 275 282 286 286 295 297 302 317 329 331 335 339 336 339 341
145 158 168 168 164 167 168 176 176 174 173 176 179 168 170 168 182 192 209 251 292 292 279 267 259 261 263 269 279 281 277 274 284 295 318 327 334 334 340 338 341 339 344
169 159 162 161 172 175 179 186 182 183 188 187 192 179 182 193 204 204 220 222 257 264 261 262 242 254 262 267 272 267 265 284 297 315 326 332 337 338 339 339 342 345 356
181 168 186 185 173 181 187 190 191 196 194 191 190 162 192 209 219 211 225 228 240 260 261 244 242 254 272 266 256 251 260 295 325 333 331 334 336 341 339 344 349 349 351
198 185 206 198 200 168 189 205 203 206 202 199 192 175 191 213 231 224 224 232 228 238 239 230 230 252 249 236 224 226 259 332 334 334 333 335 336 349 340 349 353 356 356
182 206 205 199 205 209 210 206 215 216 199 194 199 198 205 213 230 220 228 225 223 220 219 219 231 237 226 218 213 215 231 269 323 325 329 334 338 346 346 353 355 360 359
195 206 218 208 205 224 213 229 216 202 197 200 201 214 217 213 219 220 217 224 219 219 216 214 222 219 215 210 211 216 250 265 289 319 332 332 337 335 351 355 355 1 9
199 223 238 225 220 228 236 222 212 212 201 209 214 217 220 224 226 226 221 226 221 221 222 217 215 210 201 201 202 217 247 253 267 306 338 323 335 352 345 360 1 5 17
Height
761 766 773 779 785 791 793 797 798 806 807 810 811 818 824 826 826 829 830 831 833 834 834 835 836 836 835 833 832 833 830 829 824 821 822 821 821 821 819 818 817 815 812
750 758 764 771 777 782 785 788 793 794 801 805 813 808 811 818 823 825 827 828 830 831 831 832 832 832 832 832 831 829 828 828 827 821 819 818 816 815 814 813 812 810 807
745 751 757 763 770 774 777 782 787 789 795 801 799 804 810 813 816 819 820 823 825 826 825 827 828 827 827 826 826 825 823 822 821 820 817 814 811 809 807 807 805 803 801
735 742 749 756 760 764 768 771 777 782 786 790 790 791 799 804 809 813 814 816 819 821 821 820 821 822 822 822 822 821 821 820 818 816 811 810 808 804 801 799 797 793 792
728 735 742 750 756 761 763 764 769 774 778 783 787 789 796 801 801 807 810 812 815 815 816 816 817 816 815 816 817 816 815 815 811 808 804 802 801 798 798 795 792 788 787
721 727 736 744 750 753 757 758 764 767 769 776 780 786 793 794 798 801 804 806 809 810 810 813 813 813 811 810 810 810 810 810 809 807 802 799 799 798 794 791 788 785 778
716 723 730 736 742 747 752 757 758 762 770 775 778 784 786 789 793 794 796 800 802 805 806 809 810 810 807 806 805 805 804 804 803 802 800 797 795 794 791 789 787 783 778
711 717 724 730 735 739 744 749 753 758 763 769 773 777 782 783 786 788 791 794 795 798 797 798 803 804 803 802 802 801 800 799 797 795 794 793 791 789 788 785 781 778 773
709 714 719 727 732 736 740 745 751 754 758 763 768 772 774 778 779 780 784 786 788 790 791 791 792 797 798 799 798 796 794 792 791 789 789 788 786 782 781 779 774 770 764
705 711 717 723 730 733 741 744 744 750 755 757 760 763 768 771 773 774 777 780 782 784 784 784 784 787 791 793 794 792 789 787 786 786 785 781 778 774 773 770 768 764 759
703 709 713 718 721 726 730 740 742 747 752 754 756 759 761 765 767 767 772 775 778 780 779 779 780 780 784 787 787 787 785 783 784 782 778 773 770 767 764 762 761 758 750
699 703 710 717 724 729 729 739 742 744 749 752 752 755 757 760 762 761 763 769 774 774 773 772 778 779 781 782 783 782 780 779 779 775 771 768 764 762 760 758 756 751 747
696 703 711 715 720 731 732 738 743 744 745 748 750 752 754 757 761 762 762 765 769 769 770 770 772 775 777 777 777 776 776 776 773 770 767 764 761 760 758 753 748 743 738
701 709 714 719 714 731 735 738 740 740 742 746 748 750 753 757 759 758 759 761 763 764 765 768 770 773 774 774 773 773 772 771 770 768 765 762 758 755 752 747 742 736 730
705 709 713 715 721 729 732 736 738 740 742 744 745 748 751 751 753 754 758 759 760 761 764 767 767 768 769 769 768 769 769 768 766 764 762 758 755 752 747 743 738 730 725
704 711 713 717 722 727 731 734 736 739 742 743 745 745 748 750 751 756 757 758 759 762 765 763 761 761 761 762 764 765 766 765 763 762 759 756 753 749 744 739 733 728 723
705 710 713 717 720 723 727 731 736 739 742 742 744 746 748 749 752 755 757 760 761 761 761 758 757 757 759 761 762 763 762 762 762 760 756 753 750 746 742 736 730 725 721
709 714 715 717 722 724 726 729 732 737 740 747 747 747 750 751 754 756 758 760 761 759 758 756 756 757 759 760 761 761 761 760 759 757 754 751 747 743 739 734 729 725 721
709 712 713 717 721 722 723 725 730 732 737 741 746 748 752 753 754 756 757 758 757 754 754 756 756 757 758 759 761 761 760 758 758 756 752 749 745 742 738 734 729 725 723
710 713 713 716 720 720 722 724 727 730 734 739 742 744 751 752 753 754 755 756 755 754 755 756 757 757 759 760 760 760 758 756 754 753 751 748 744 741 737 734 729 724 719
709 713 712 714 717 718 719 721 723 727 730 734 738 742 746 747 748 749 751 753 753 754 755 755 756 757 759 759 759 757 755 754 754 752 750 748 744 741 738 735 730 724 720
706 709 711 710 713 716 718 720 722 724 727 731 735 741 745 747 745 747 750 751 751 753 753 755 755 756 757 757 757 755 754 754 753 753 751 748 745 742 739 735 731 726 722
704 706 708 709 711 714 718 718 719 722 725 728 731 736 743 744 743 745 747 748 750 751 752 753 754 755 756 756 756 756 755 754 754 754 752 749 746 743 740 736 732 729 726
705 706 708 709 712 714 714 716 719 722 724 729 731 734 737 739 739 741 744 745 748 749 750 751 752 753 754 754 754 755 755 754 754 754 752 750 746 744 740 737 734 732 728
705 707 708 709 711 713 713 716 717 721 724 726 728 730 730 733 735 737 741 742 745 746 747 748 749 751 752 752 753 754 752 752 752 752 751 749 747 745 742 739 737 733 731
707 708 708 708 709 713 712 713 715 718 718 722 723 723 725 728 730 733 736 738 740 742 744 745 747 748 749 749 751 750 750 751 751 751 750 749 748 746 744 741 739 735 733